Location: Betpouey
(42.8833°N, 0.0333°E)
Time: 08:25:15
(UTC+00:00)

Cosmos 1943 Rocket - Pass Details

Date: 01 December 2020
Orbit: 811 x 844 km, 71.0° (Epoch: 17 January)

Event Time Altitude Azimuth Distance (km) Brightness Sun altitude
Rises 17:53:05 0° 332° (NNW) 3,360 5.5 -15.4°
Reaches altitude 10° 17:55:31 10° 329° (NNW) 2,428 4.8 -15.9°
Maximum altitude 18:01:01 63° 250° (WSW) 919 2.6 -16.8°
Drops below altitude 10° 18:06:31 10° 170° (S) 2,434 4.6 -17.8°
Sets 18:08:58 0° 167° (SSE) 3,369 5.3 -18.2°
